{"data":{"norad_id":56794,"epoch":"2026-05-25T03:03:22.976064Z","epoch_age_seconds":74428,"freshness":"FRESH","line1":"1 56794U 23078AD  26145.12734926  .00001403  00000+0  12534-3 0  9998","line2":"2 56794  69.9986 131.7102 0003925 266.9358  93.1352 14.98330461164624","mean_motion":14.98330461,"eccentricity":0.0003925,"inclination_deg":69.9986,"raan_deg":131.7102,"arg_perigee_deg":266.9358,"mean_anomaly_deg":93.1352,"bstar":0.00012534,"rev_number":16462,"period_min":96.106969555897,"perigee_km":569.32651519016,"apogee_km":574.78241549046,"semimajor_km":6950.1914653403,"source":"CELESTRAK","updated_at":"2026-05-25T13:38:18.156994Z"}}